HAWK-2B

Last updated on Tue Sep 22 2026 00:03:52 GMT+0000 (Coordinated Universal Time)

1 47508U 21006CZ 26263.69503275 .00004455 00000+0 12977-3 0 9995 2 47508 97.2108 305.0419 0005799 204.8133 155.2833 15.35888806314159
UTC large
Height (km)
Speed (km/s)
/
Latitude / Longitude
Inclination (degrees)
Orbital Period (minutes)
Azimuth
Elevation
Range (km)
Doppler Factor

Next 0 passes for location: London (51.5072 / 0.1276)

No passes found over London.
HAWK-2B